Cross City, FL

5:27 PM EST on November 22, 2017 (GMT -0500)
Cross City

Weather History for KCTY - April, 2014

Change the Weather History Date:

Monday, April 7, 2014

  Actual Average Record
Temperature  
Mean Temperature 75 °F 66 °F  
Max Temperature 83 °F 79 °F 87 °F (2015)
Min Temperature 66 °F 53 °F 39 °F (2009)
Degree Days  
Heating Degree Days 0 2  
Month to date heating degree days 4 19  
Since 1 July heating degree days 1164 1274  
Cooling Degree Days 10 3  
Month to date cooling degree days 21 20  
Year to date cooling degree days 73 94  
Growing Degree Days 24 (Base 50)    
Moisture  
Dew Point 67 °F    
Average Humidity 81    
Maximum Humidity 100    
Minimum Humidity 51    
Precipitation  
Precipitation 0.80 in 0.14 in 1.12 in (2005)
Month to date precipitation 0.81 1.00  
Year to date precipitation 15.92 12.52  
Sea Level Pressure  
Sea Level Pressure 29.85 in    
Wind  
Wind Speed 12 mph (South)    
Max Wind Speed 25 mph    
Max Gust Speed 35 mph    
T = Trace of Precipitation, MM = Missing Value Source: NWS Daily Summary

Daily Weather History Graph

Daily Weather History Graph

Search for Another Location

Airport or City:

Trip Planner

Search our weather history database for the weather conditions in past years. The results will help you decide how hot, cold, wet, or windy it might be!

Date:

Astronomy

Apr. 07, 2014 Rise Set
Actual Time 7:14 AM EDT 7:54 PM EDT
Civil Twilight 6:50 AM EDT 8:18 PM EDT
Nautical Twilight 6:22 AM EDT 8:47 PM EDT
Astronomical Twilight 5:53 AM EDT 9:16 PM EDT
Moon 1:21 PM EDT (4/7) 2:19 AM EDT (4/7)
Length of Visible Light 13h 27m
Length of Day
12h 39m
First Quarter, 53% of the Moon is Illuminated
Apr 7
First Quarter
Apr 15
Full
Apr 22
Last Quarter
Apr 29
New
May 6
First Quarter

Hourly Weather History & Observations

Time (EDT) Temp. Heat Index Dew Point Humidity Pressure Visibility Wind Dir Wind Speed Gust Speed Precip Events Conditions
12:53 AM 68.0 °F - 64.0 °F 87% 29.94 in - Calm Calm - N/A   Unknown
1:53 AM 66.9 °F - 64.0 °F 90% 29.91 in - ESE 3.5 mph - N/A   Unknown
2:53 AM 66.0 °F - 64.0 °F 93% 29.88 in - SE 3.5 mph - N/A   Unknown
3:53 AM 66.0 °F - 64.9 °F 96% 29.88 in - SSE 6.9 mph - N/A   Unknown
4:53 AM 66.0 °F - 64.9 °F 96% 29.87 in - SSE 4.6 mph - N/A   Unknown
5:53 AM 66.9 °F - 64.9 °F 93% 29.88 in - SE 4.6 mph - N/A   Unknown
6:53 AM 66.9 °F - 66.0 °F 97% 29.88 in - SSE 5.8 mph - N/A   Unknown
7:53 AM 66.9 °F - 66.0 °F 97% 29.89 in - SSE 5.8 mph - 0.01 in   Unknown
8:53 AM 69.1 °F - 66.9 °F 93% 29.88 in - Variable 5.8 mph - N/A   Unknown
9:53 AM 73.0 °F - 68.0 °F 84% 29.88 in - South 11.5 mph - N/A   Unknown
10:53 AM 80.1 °F 81.9 °F 64.9 °F 60% 29.87 in - South 15.0 mph 24.2 mph N/A   Unknown
11:53 AM 82.9 °F 84.0 °F 63.0 °F 51% 29.88 in - South 20.7 mph 27.6 mph N/A   Unknown
12:53 PM 82.0 °F 83.8 °F 64.9 °F 56% 29.86 in - South 23.0 mph 35.7 mph N/A   Unknown
1:53 PM 81.0 °F 84.1 °F 69.1 °F 67% 29.85 in - South 16.1 mph 24.2 mph N/A   Unknown
2:53 PM 81.0 °F 84.1 °F 69.1 °F 67% 29.82 in - SSW 19.6 mph 28.8 mph N/A   Unknown
3:53 PM 78.1 °F - 69.1 °F 74% 29.81 in - South 16.1 mph 23.0 mph N/A   Unknown
4:53 PM 77.0 °F - 68.0 °F 74% 29.78 in - South 16.1 mph 29.9 mph N/A   Unknown
5:53 PM 77.0 °F - 66.9 °F 71% 29.80 in - SSW 15.0 mph 23.0 mph N/A   Unknown
6:53 PM 77.0 °F - 68.0 °F 74% 29.78 in - SSW 18.4 mph 28.8 mph N/A   Unknown
7:53 PM 77.0 °F - 66.9 °F 71% 29.78 in - SSW 17.3 mph 25.3 mph N/A   Unknown
8:53 PM 73.9 °F - 69.1 °F 85% 29.80 in - West 6.9 mph - 0.03 in   Unknown
9:53 PM 73.9 °F - 71.1 °F 91% 29.83 in - SSW 10.4 mph - 0.06 in   Unknown
10:53 PM 73.0 °F - 71.1 °F 93% 29.81 in - South 9.2 mph - 0.20 in   Unknown
11:53 PM 73.9 °F - 71.1 °F 91% 29.80 in - SSW 13.8 mph - 0.10 in   Unknown